,,,PA_Meas_PMT16A,,PR_Meas_QMR101_102,,RH_Meas_QMH101,,SR_Meas_QMS101,,TA_Meas_QMH101,,GenWind,,GenWind,
date,time,status,PA,status,PR,status,RH,status,SR,status,TA,status,DirAvg,status,SpdAvg,
2014-10-17, 00:00:04,VALID,1010.07,VALID,0,INVALID,137.485,VALID,0,VALID,23.4407,VALID,348,VALID,0,
2014-10-17, 00:01:04,VALID,1010.04,VALID,0,INVALID,137.614,VALID,0,VALID,23.4602,VALID,348,VALID,0,
2014-10-17, 00:02:04,VALID,1010,VALID,0,INVALID,137.523,VALID,0,VALID,23.4797,VALID,348,VALID,0,
2014-10-17, 00:03:04,VALID,1009.96,VALID,0,INVALID,137.386,VALID,0,VALID,23.4602,VALID,348,VALID,0,
2014-10-17, 00:04:04,VALID,1009.92,VALID,0,INVALID,137.294,VALID,0,VALID,23.4584,VALID,348,VALID,0,
2014-10-17, 00:05:04,VALID,1009.9,VALID,0,INVALID,137.058,VALID,0,VALID,23.4797,VALID,348,VALID,0,
2014-10-17, 00:06:04,VALID,1009.87,VALID,0,INVALID,137.065,VALID,0,VALID,23.4584,VALID,348,VALID,0,
2014-10-17, 00:07:04,VALID,1009.85,VALID,0,INVALID,137.172,VALID,0,VALID,23.4602,VALID,348,VALID,0,
2014-10-17, 00:08:04,VALID,1009.81,VALID,0,INVALID,137.203,VALID,0,VALID,23.4602,VALID,348,VALID,0.335938,
2014-10-17, 00:09:04,VALID,1009.81,VALID,0,INVALID,137.149,VALID,0,VALID,23.4407,VALID,348,VALID,0.392188,
2014-10-17, 00:10:04,VALID,1009.78,VALID,0,INVALID,136.966,VALID,0,VALID,23.4212,VALID,348,VALID,0.373828,
2014-10-17, 00:11:04,VALID,1009.74,VALID,0,INVALID,136.928,VALID,0,VALID,23.3823,VALID,348,VALID,0.526563,
2014-10-17, 00:12:04,VALID,1009.72,VALID,0,INVALID,137.081,VALID,0,VALID,23.3628,VALID,348,VALID,0.470703,
2014-10-17, 00:13:04,VALID,1009.67,VALID,0,INVALID,137.439,VALID,0,VALID,23.3433,VALID,348,VALID,0.412891,
2014-10-17, 00:14:04,VALID,1009.67,VALID,0,INVALID,137.576,VALID,0,VALID,23.3238,VALID,348,VALID,0.266797,
2014-10-17, 00:15:04,VALID,1009.68,VALID,0,INVALID,137.645,VALID,0,VALID,23.3043,VALID,348,VALID,0.204688,
2014-10-17, 00:16:04,VALID,1009.67,VALID,0,INVALID,137.622,VALID,0,VALID,23.3043,VALID,348,VALID,0.282031,
2014-10-17, 00:17:04,VALID,1009.69,VALID,0,INVALID,137.622,VALID,0,VALID,23.2654,VALID,348,VALID,0.283594,
2014-10-17, 00:18:04,VALID,1009.72,VALID,0,INVALID,137.599,VALID,0,VALID,23.2459,VALID,348,VALID,0,
2014-10-17, 00:19:04,VALID,1009.72,VALID,0,INVALID,137.591,VALID,0,VALID,23.2069,VALID,348,VALID,0.173828,
2014-10-17, 00:20:04,VALID,1009.74,VALID,0,INVALID,137.66,VALID,0,VALID,23.2069,VALID,348,VALID,0.349609,
2014-10-17, 00:21:04,VALID,1009.74,VALID,0,INVALID,137.759,VALID,0,VALID,23.1874,VALID,348,VALID,0,
2014-10-17, 00:22:04,VALID,1009.72,VALID,0,INVALID,137.79,VALID,0,VALID,23.1467,VALID,348,VALID,0,
2014-10-17, 00:23:04,VALID,1009.7,VALID,0,INVALID,137.767,VALID,0,VALID,23.1485,VALID,348,VALID,0,
2014-10-17, 00:24:04,VALID,1009.66,VALID,0,INVALID,137.813,VALID,0,VALID,23.1485,VALID,348,VALID,0,
2014-10-17, 00:25:04,VALID,1009.65,VALID,0,INVALID,137.797,VALID,0,VALID,23.1485,VALID,348,VALID,0,
2014-10-17, 00:26:04,VALID,1009.64,VALID,0,INVALID,137.828,VALID,0,VALID,23.1485,VALID,348,VALID,0.333594,
2014-10-17, 00:27:04,VALID,1009.65,VALID,0,INVALID,137.706,VALID,0,VALID,23.1485,VALID,348,VALID,0.300781,
2014-10-17, 00:28:04,VALID,1009.62,VALID,0,INVALID,137.706,VALID,0,VALID,23.1485,VALID,348,VALID,0.257813,
2014-10-17, 00:29:04,VALID,1009.6,VALID,0,INVALID,137.675,VALID,0,VALID,23.1077,VALID,348,VALID,0.303906,
2014-10-17, 00:30:04,VALID,1009.58,VALID,0,INVALID,137.652,VALID,0,VALID,23.129,VALID,348,VALID,0,
2014-10-17, 00:31:04,VALID,1009.57,VALID,0,INVALID,137.668,VALID,0,VALID,23.129,VALID,348,VALID,0.00273437,
2014-10-17, 00:32:04,VALID,1009.54,VALID,0,INVALID,137.622,VALID,0,VALID,23.129,VALID,348,VALID,0.0996094,
2014-10-17, 00:33:04,VALID,1009.51,VALID,0,INVALID,137.622,VALID,0,VALID,23.1095,VALID,348,VALID,0.139453,
2014-10-17, 00:34:04,VALID,1009.49,VALID,0,INVALID,137.523,VALID,0,VALID,23.129,VALID,348,VALID,0.249219,
2014-10-17, 00:35:04,VALID,1009.49,VALID,0,INVALID,137.515,VALID,0,VALID,23.129,VALID,348,VALID,0,
2014-10-17, 00:36:04,VALID,1009.5,VALID,0,INVALID,137.462,VALID,0.112112,VALID,23.1485,VALID,348,VALID,0.286328,
2014-10-17, 00:37:04,VALID,1009.48,VALID,0,INVALID,137.424,VALID,0,VALID,23.1485,VALID,348,VALID,0.0855469,
2014-10-17, 00:38:04,VALID,1009.47,VALID,0,INVALID,137.393,VALID,0,VALID,23.129,VALID,348,VALID,0,
2014-10-17, 00:39:04,VALID,1009.43,VALID,0,INVALID,137.408,VALID,0,VALID,23.1095,VALID,348,VALID,0.392578,
2014-10-17, 00:40:04,VALID,1009.45,VALID,0,INVALID,137.424,VALID,0,VALID,23.1095,VALID,348,VALID,0.371094,
2014-10-17, 00:41:04,VALID,1009.41,VALID,0,INVALID,137.393,VALID,0,VALID,23.09,VALID,348,VALID,0.461328,
2014-10-17, 00:42:04,VALID,1009.39,VALID,0,INVALID,137.447,VALID,0,VALID,23.09,VALID,348,VALID,0.469531,
2014-10-17, 00:43:04,VALID,1009.38,VALID,0,INVALID,137.469,VALID,0,VALID,23.0705,VALID,348,VALID,0.523047,
2014-10-17, 00:44:04,VALID,1009.4,VALID,0,INVALID,137.416,VALID,0,VALID,23.0705,VALID,348,VALID,0.307813,
2014-10-17, 00:45:04,VALID,1009.39,VALID,0,INVALID,137.386,VALID,0,VALID,23.0511,VALID,348,VALID,0,
2014-10-17, 00:46:04,VALID,1009.38,VALID,0,INVALID,137.401,VALID,0,VALID,23.0511,VALID,348,VALID,0,
2014-10-17, 00:47:04,VALID,1009.38,VALID,0,INVALID,137.416,VALID,0,VALID,23.0316,VALID,348,VALID,0.275781,
2014-10-17, 00:48:04,VALID,1009.35,VALID,0,INVALID,137.386,VALID,0,VALID,23.0511,VALID,348,VALID,0.0851562,
2014-10-17, 00:49:04,VALID,1009.36,VALID,0,INVALID,137.378,VALID,0,VALID,23.0316,VALID,348,VALID,0,
2014-10-17, 00:50:04,VALID,1009.32,VALID,0,INVALID,137.355,VALID,0,VALID,23.0316,VALID,348,VALID,0.357422,
2014-10-17, 00:51:04,VALID,1009.31,VALID,0,INVALID,137.34,VALID,0,VALID,23.0316,VALID,348,VALID,0.386328,
2014-10-17, 00:52:04,VALID,1009.32,VALID,0,INVALID,137.286,VALID,0,VALID,23.0705,VALID,348,VALID,0.817578,
2014-10-17, 00:53:04,VALID,1009.31,VALID,0,INVALID,137.21,VALID,0,VALID,23.0493,VALID,348,VALID,0.451953,
2014-10-17, 00:54:04,VALID,1009.27,VALID,0,INVALID,137.157,VALID,0,VALID,23.0705,VALID,348,VALID,0.235938,
2014-10-17, 00:55:04,VALID,1009.29,VALID,0,INVALID,137.157,VALID,0,VALID,23.0688,VALID,348,VALID,0.647266,
2014-10-17, 00:56:04,VALID,1009.29,VALID,0,INVALID,137.126,VALID,0,VALID,23.0705,VALID,348,VALID,0.544922,
2014-10-17, 00:57:04,VALID,1009.28,VALID,0,INVALID,137.172,VALID,0,VALID,23.0705,VALID,348,VALID,0.344922,
2014-10-17, 00:58:04,VALID,1009.27,VALID,0,INVALID,137.187,VALID,0,VALID,23.0705,VALID,348,VALID,0.310156,
2014-10-17, 00:59:04,VALID,1009.29,VALID,0,INVALID,137.225,VALID,0,VALID,23.09,VALID,348,VALID,0.000390625,
2014-10-17, 01:00:04,VALID,1009.3,VALID,0,INVALID,137.256,VALID,0,VALID,23.0705,VALID,348,VALID,0.0140625,
2014-10-17, 01:01:04,VALID,1009.34,VALID,0,INVALID,137.271,VALID,0,VALID,23.0705,VALID,348,VALID,0.0429688,
2014-10-17, 01:02:04,VALID,1009.35,VALID,0,INVALID,137.302,VALID,0,VALID,23.0511,VALID,348,VALID,0.278516,
2014-10-17, 01:03:04,VALID,1009.33,VALID,0,INVALID,137.37,VALID,0,VALID,23.0511,VALID,348,VALID,0.596875,
2014-10-17, 01:04:04,VALID,1009.3,VALID,0,INVALID,137.34,VALID,0,VALID,23.0918,VALID,348,VALID,0.196484,
2014-10-17, 01:05:04,VALID,1009.29,VALID,0,INVALID,137.37,VALID,0,VALID,23.0511,VALID,348,VALID,0.0722656,
2014-10-17, 01:06:04,VALID,1009.3,VALID,0,INVALID,137.363,VALID,0,VALID,23.0705,VALID,348,VALID,0.362891,
2014-10-17, 01:07:04,VALID,1009.26,VALID,0,INVALID,137.355,VALID,0,VALID,23.0511,VALID,348,VALID,0,
2014-10-17, 01:08:04,VALID,1009.24,VALID,0,INVALID,137.401,VALID,0.112112,VALID,23.0705,VALID,348,VALID,0.35,
2014-10-17, 01:09:04,VALID,1009.24,VALID,0,INVALID,137.424,VALID,0,VALID,23.0511,VALID,348,VALID,0,
2014-10-17, 01:10:04,VALID,1009.21,VALID,0,INVALID,137.416,VALID,0,VALID,23.0511,VALID,348,VALID,0,
2014-10-17, 01:11:04,VALID,1009.2,VALID,0,INVALID,137.469,VALID,0,VALID,23.0511,VALID,348,VALID,0.318359,
2014-10-17, 01:12:04,VALID,1009.2,VALID,0,INVALID,137.485,VALID,0,VALID,23.0511,VALID,348,VALID,0.176172,
2014-10-17, 01:13:04,VALID,1009.19,VALID,0,INVALID,137.462,VALID,0,VALID,23.0511,VALID,348,VALID,0.161719,
2014-10-17, 01:14:04,VALID,1009.17,VALID,0,INVALID,137.431,VALID,0,VALID,23.0316,VALID,348,VALID,0,
2014-10-17, 01:15:04,VALID,1009.2,VALID,0,INVALID,137.477,VALID,0,VALID,23.0316,VALID,348,VALID,0,
2014-10-17, 01:16:04,VALID,1009.19,VALID,0,INVALID,137.462,VALID,0,VALID,23.0316,VALID,348,VALID,0,
2014-10-17, 01:17:04,VALID,1009.14,VALID,0,INVALID,137.447,VALID,0,VALID,23.0316,VALID,348,VALID,0,
2014-10-17, 01:18:04,VALID,1009.14,VALID,0,INVALID,137.477,VALID,0,VALID,23.0121,VALID,348,VALID,0.291406,
2014-10-17, 01:19:04,VALID,1009.14,VALID,0,INVALID,137.447,VALID,0,VALID,22.9926,VALID,348,VALID,0.465234,
2014-10-17, 01:20:04,VALID,1009.14,VALID,0,INVALID,137.447,VALID,0,VALID,22.9926,VALID,348,VALID,0.282422,
2014-10-17, 01:21:04,VALID,1009.13,VALID,0,INVALID,137.492,VALID,0,VALID,22.9731,VALID,348,VALID,0.23125,
2014-10-17, 01:22:04,VALID,1009.12,VALID,0,INVALID,137.477,VALID,0,VALID,22.9731,VALID,348,VALID,0.375781,
2014-10-17, 01:23:04,VALID,1009.12,VALID,0,INVALID,137.439,VALID,0,VALID,22.9731,VALID,348,VALID,0.322266,
2014-10-17, 01:24:04,VALID,1009.1,VALID,0,INVALID,137.431,VALID,0,VALID,22.9731,VALID,348,VALID,0.00117188,
2014-10-17, 01:25:04,VALID,1009.09,VALID,0,INVALID,137.378,VALID,0,VALID,22.9731,VALID,348,VALID,0.123047,
2014-10-17, 01:26:04,VALID,1009.12,VALID,0,INVALID,137.393,VALID,0,VALID,22.9731,VALID,348,VALID,0.135937,
2014-10-17, 01:27:04,VALID,1009.1,VALID,0,INVALID,137.363,VALID,0,VALID,22.9519,VALID,348,VALID,0.307422,
2014-10-17, 01:28:04,VALID,1009.1,VALID,0,INVALID,137.37,VALID,0,VALID,22.9731,VALID,348,VALID,0.244531,
2014-10-17, 01:29:04,VALID,1009.11,VALID,0,INVALID,137.332,VALID,0,VALID,22.9519,VALID,348,VALID,0.316016,
2014-10-17, 01:30:04,VALID,1009.11,VALID,0,INVALID,137.271,VALID,0,VALID,22.9519,VALID,348,VALID,0.422266,
2014-10-17, 01:31:04,VALID,1009.1,VALID,0,INVALID,137.271,VALID,0,VALID,22.9731,VALID,348,VALID,0.185156,
2014-10-17, 01:32:04,VALID,1009.09,VALID,0,INVALID,137.248,VALID,0,VALID,22.9519,VALID,348,VALID,0,
2014-10-17, 01:33:04,VALID,1009.13,VALID,0,INVALID,137.203,VALID,0.112112,VALID,22.9324,VALID,348,VALID,0.0316406,
2014-10-17, 01:34:04,VALID,1009.08,VALID,0,INVALID,137.195,VALID,0,VALID,22.9536,VALID,348,VALID,0.379687,
2014-10-17, 01:35:04,VALID,1009.11,VALID,0,INVALID,137.18,VALID,0.112112,VALID,22.9519,VALID,348,VALID,0.162891,
2014-10-17, 01:36:04,VALID,1009.11,VALID,0,INVALID,137.164,VALID,0.112112,VALID,22.9519,VALID,348,VALID,0.515625,
2014-10-17, 01:37:04,VALID,1009.13,VALID,0,INVALID,137.203,VALID,0,VALID,22.9536,VALID,348,VALID,0.138672,
2014-10-17, 01:38:04,VALID,1009.11,VALID,0,INVALID,137.203,VALID,0.112112,VALID,22.9519,VALID,348,VALID,0.107813,
2014-10-17, 01:39:04,VALID,1009.11,VALID,0,INVALID,137.172,VALID,0,VALID,22.9324,VALID,348,VALID,0.298828,
2014-10-17, 01:40:04,VALID,1009.1,VALID,0,INVALID,137.203,VALID,0,VALID,22.9536,VALID,348,VALID,0.551562,
2014-10-17, 01:41:04,VALID,1009.09,VALID,0,INVALID,137.157,VALID,0,VALID,22.9536,VALID,348,VALID,0.126953,
2014-10-17, 01:42:04,VALID,1009.08,VALID,0,INVALID,137.218,VALID,0.112112,VALID,22.9536,VALID,348,VALID,0.394922,
2014-10-17, 01:43:04,VALID,1009.07,VALID,0,INVALID,137.195,VALID,0.112112,VALID,22.9536,VALID,348,VALID,0.115625,
2014-10-17, 01:44:04,VALID,1009.01,VALID,0,INVALID,137.203,VALID,0,VALID,22.9324,VALID,348,VALID,0.335547,
2014-10-17, 01:45:04,VALID,1009,VALID,0,INVALID,137.203,VALID,0,VALID,22.9536,VALID,348,VALID,0.148828,
2014-10-17, 01:46:04,VALID,1008.99,VALID,0,INVALID,137.203,VALID,0,VALID,22.9324,VALID,348,VALID,0.320703,
2014-10-17, 01:47:04,VALID,1008.98,VALID,0,INVALID,137.225,VALID,0,VALID,22.9324,VALID,348,VALID,0.71875,
2014-10-17, 01:48:04,VALID,1009,VALID,0,INVALID,137.203,VALID,0.112112,VALID,22.9536,VALID,348,VALID,0.526953,
2014-10-17, 01:49:04,VALID,1008.98,VALID,0,INVALID,137.248,VALID,0.112112,VALID,22.9342,VALID,348,VALID,0.508203,
2014-10-17, 01:50:04,VALID,1008.97,VALID,0,INVALID,137.279,VALID,0.112112,VALID,22.9324,VALID,348,VALID,0.657422,
2014-10-17, 01:51:04,VALID,1008.97,VALID,0,INVALID,137.279,VALID,0,VALID,22.9536,VALID,348,VALID,0.363672,
2014-10-17, 01:52:04,VALID,1008.91,VALID,0,INVALID,137.302,VALID,0.112112,VALID,22.9536,VALID,348,VALID,0.563281,
2014-10-17, 01:53:04,VALID,1008.92,VALID,0,INVALID,137.317,VALID,0.112112,VALID,22.9731,VALID,348,VALID,0.323438,
2014-10-17, 01:54:04,VALID,1008.89,VALID,0,INVALID,137.378,VALID,0,VALID,22.9536,VALID,348,VALID,0.714453,
2014-10-17, 01:55:04,VALID,1008.87,VALID,0,INVALID,137.355,VALID,0.112112,VALID,22.9731,VALID,348,VALID,0.323047,
2014-10-17, 01:56:04,VALID,1008.86,VALID,0,INVALID,137.347,VALID,0,VALID,22.9129,VALID,348,VALID,0.264453,
2014-10-17, 01:57:04,VALID,1008.83,VALID,0,INVALID,137.393,VALID,0,VALID,22.9342,VALID,348,VALID,0.358203,
2014-10-17, 01:58:04,VALID,1008.81,VALID,0,INVALID,137.393,VALID,0,VALID,22.9342,VALID,348,VALID,0.534375,
2014-10-17, 01:59:04,VALID,1008.84,VALID,0,INVALID,137.401,VALID,0,VALID,22.9129,VALID,348,VALID,0.391016,
2014-10-17, 02:00:04,VALID,1008.81,VALID,0,INVALID,137.408,VALID,0,VALID,22.9129,VALID,348,VALID,0.413672,
2014-10-17, 02:01:04,VALID,1008.82,VALID,0,INVALID,137.447,VALID,0.112112,VALID,22.9342,VALID,348,VALID,0.340625,
2014-10-17, 02:02:04,VALID,1008.8,VALID,0,INVALID,137.393,VALID,0.112112,VALID,22.9129,VALID,348,VALID,0.393359,
2014-10-17, 02:03:04,VALID,1008.79,VALID,0,INVALID,137.363,VALID,0.112112,VALID,22.9129,VALID,348,VALID,0.208594,
2014-10-17, 02:04:04,VALID,1008.8,VALID,0,INVALID,137.325,VALID,0,VALID,22.9129,VALID,348,VALID,0.355859,
2014-10-17, 02:05:04,VALID,1008.81,VALID,0,INVALID,137.18,VALID,0,VALID,22.8935,VALID,348,VALID,0.922656,
2014-10-17, 02:06:04,VALID,1008.81,VALID,0,INVALID,137.111,VALID,0.112112,VALID,22.9129,VALID,348,VALID,0.355078,
2014-10-17, 02:07:04,VALID,1008.84,VALID,0,INVALID,136.913,VALID,0.112112,VALID,22.9324,VALID,348,VALID,0,
2014-10-17, 02:08:04,VALID,1008.86,VALID,0,INVALID,136.692,VALID,0.112112,VALID,22.9324,VALID,348,VALID,0.485547,
2014-10-17, 02:09:04,VALID,1008.86,VALID,0,INVALID,136.303,VALID,0.112112,VALID,22.9536,VALID,348,VALID,0.216797,
2014-10-17, 02:10:04,VALID,1008.9,VALID,0,INVALID,136.097,VALID,0.112112,VALID,22.9731,VALID,348,VALID,0.404297,
2014-10-17, 02:11:04,VALID,1008.9,VALID,0,INVALID,135.883,VALID,0,VALID,22.9731,VALID,348,VALID,0.542188,
2014-10-17, 02:12:04,VALID,1008.86,VALID,0,INVALID,135.479,VALID,0,VALID,22.9731,VALID,348,VALID,0.549609,
2014-10-17, 02:13:04,VALID,1008.89,VALID,0,INVALID,135.22,VALID,0.112112,VALID,22.9714,VALID,348,VALID,0.254297,
2014-10-17, 02:14:04,VALID,1008.86,VALID,0,INVALID,134.953,VALID,0,VALID,22.9731,VALID,348,VALID,0.367188,
2014-10-17, 02:15:04,VALID,1008.86,VALID,0,INVALID,134.701,VALID,0,VALID,22.9714,VALID,348,VALID,0.0148437,
2014-10-17, 02:16:04,VALID,1008.85,VALID,0,INVALID,134.198,VALID,0.112112,VALID,22.9714,VALID,348,VALID,0.202344,
2014-10-17, 02:17:04,VALID,1008.81,VALID,0,INVALID,133.939,VALID,0.112112,VALID,22.9714,VALID,348,VALID,0,
2014-10-17, 02:18:04,VALID,1008.8,VALID,0,INVALID,133.397,VALID,0.112112,VALID,22.9714,VALID,348,VALID,0.31875,
2014-10-17, 02:19:04,VALID,1008.81,VALID,0,INVALID,133.321,VALID,0.112112,VALID,22.9714,VALID,348,VALID,0.717969,
2014-10-17, 02:20:04,VALID,1008.79,VALID,0,INVALID,132.398,VALID,0.112112,VALID,22.9714,VALID,348,VALID,0.214453,
2014-10-17, 02:21:04,VALID,1008.79,VALID,0,INVALID,131.132,VALID,0.112112,VALID,22.9714,VALID,348,VALID,0.85625,
2014-10-17, 02:22:04,VALID,1008.78,VALID,0,INVALID,130.187,VALID,0.112112,VALID,22.9714,VALID,348,VALID,0.226172,
2014-10-17, 02:23:04,VALID,1008.77,VALID,0,INVALID,129.066,VALID,0,VALID,22.9909,VALID,348,VALID,0.399219,
2014-10-17, 02:24:04,VALID,1008.76,VALID,0,INVALID,128.418,VALID,0,VALID,22.9714,VALID,348,VALID,0.330078,
2014-10-17, 02:25:04,VALID,1008.75,VALID,0,INVALID,128.014,VALID,0,VALID,22.9519,VALID,348,VALID,0.0128906,
2014-10-17, 02:26:04,VALID,1008.74,VALID,0,INVALID,127.823,VALID,0,VALID,22.9731,VALID,348,VALID,0,
2014-10-17, 02:27:04,VALID,1008.72,VALID,0,INVALID,128.006,VALID,0,VALID,22.9324,VALID,348,VALID,0,
2014-10-17, 02:28:04,VALID,1008.71,VALID,0,INVALID,128.021,VALID,0.112112,VALID,22.9342,VALID,348,VALID,0,
2014-10-17, 02:29:04,VALID,1008.71,VALID,0,INVALID,128.875,VALID,0.112112,VALID,22.9342,VALID,348,VALID,0.347656,
2014-10-17, 02:30:04,VALID,1008.75,VALID,0,INVALID,129.806,VALID,0,VALID,22.9342,VALID,348,VALID,0.520312,
2014-10-17, 02:31:04,VALID,1008.72,VALID,0,INVALID,130.378,VALID,0,VALID,22.9342,VALID,348,VALID,0,
2014-10-17, 02:32:04,VALID,1008.76,VALID,0,INVALID,131.003,VALID,0,VALID,22.9342,VALID,348,VALID,0.112109,
2014-10-17, 02:33:04,VALID,1008.74,VALID,0,INVALID,131.857,VALID,0,VALID,22.9342,VALID,348,VALID,0,
2014-10-17, 02:34:04,VALID,1008.73,VALID,0,INVALID,132.07,VALID,0.112112,VALID,22.9342,VALID,348,VALID,0,
2014-10-17, 02:35:04,VALID,1008.75,VALID,0,INVALID,131.903,VALID,0.112112,VALID,22.9147,VALID,348,VALID,0,
2014-10-17, 02:36:04,VALID,1008.73,VALID,0,INVALID,132.055,VALID,0,VALID,22.9147,VALID,348,VALID,0.0667969,
2014-10-17, 02:37:04,VALID,1008.71,VALID,0,INVALID,132.231,VALID,0,VALID,22.9147,VALID,348,VALID,0,
2014-10-17, 02:38:04,VALID,1008.71,VALID,0,INVALID,132.307,VALID,0.112112,VALID,22.8952,VALID,348,VALID,0,
2014-10-17, 02:39:04,VALID,1008.7,VALID,0,INVALID,131.887,VALID,0,VALID,22.8952,VALID,348,VALID,0,
2014-10-17, 02:40:04,VALID,1008.69,VALID,0,INVALID,132.017,VALID,0.112112,VALID,22.8757,VALID,348,VALID,0,
2014-10-17, 02:41:04,VALID,1008.75,VALID,0,INVALID,132.627,VALID,0.112112,VALID,22.8545,VALID,348,VALID,0,
2014-10-17, 02:42:04,VALID,1008.76,VALID,0,INVALID,133.588,VALID,0.112112,VALID,22.8757,VALID,348,VALID,0,
2014-10-17, 02:43:04,VALID,1008.8,VALID,0,INVALID,134.351,VALID,0,VALID,22.8562,VALID,348,VALID,0,
2014-10-17, 02:44:04,VALID,1008.81,VALID,0,INVALID,134.503,VALID,0.112112,VALID,22.835,VALID,348,VALID,0,
2014-10-17, 02:45:04,VALID,1008.8,VALID,0,INVALID,134.823,VALID,0,VALID,22.8368,VALID,348,VALID,0,
2014-10-17, 02:46:04,VALID,1008.81,VALID,0,INVALID,135.433,VALID,0,VALID,22.8368,VALID,348,VALID,0,
2014-10-17, 02:47:04,VALID,1008.82,VALID,0,INVALID,135.395,VALID,0,VALID,22.7961,VALID,348,VALID,0,
2014-10-17, 02:48:04,VALID,1008.81,VALID,0,INVALID,135.014,VALID,0,VALID,22.7783,VALID,348,VALID,0,
2014-10-17, 02:49:04,VALID,1008.82,VALID,0,INVALID,135.22,VALID,0,VALID,22.7783,VALID,348,VALID,0,
2014-10-17, 02:50:04,VALID,1008.81,VALID,0,INVALID,135.929,VALID,0,VALID,22.7783,VALID,348,VALID,0,
2014-10-17, 02:51:04,VALID,1008.84,VALID,0,INVALID,136.409,VALID,0,VALID,22.7995,VALID,348,VALID,0,
2014-10-17, 02:52:04,VALID,1008.85,VALID,0,INVALID,136.859,VALID,0,VALID,22.7783,VALID,348,VALID,0,
2014-10-17, 02:53:04,VALID,1008.83,VALID,0,INVALID,137.302,VALID,0.112112,VALID,22.7783,VALID,348,VALID,0.33125,
2014-10-17, 02:54:04,VALID,1008.83,VALID,0,INVALID,137.53,VALID,0.112112,VALID,22.7978,VALID,348,VALID,0.325781,
2014-10-17, 02:55:04,VALID,1008.82,VALID,0,INVALID,137.538,VALID,0.112112,VALID,22.7978,VALID,348,VALID,0.431641,
2014-10-17, 02:56:04,VALID,1008.79,VALID,0,INVALID,137.492,VALID,0,VALID,22.7978,VALID,348,VALID,0.522266,
2014-10-17, 02:57:04,VALID,1008.8,VALID,0,INVALID,137.546,VALID,0,VALID,22.7978,VALID,348,VALID,0.465234,
2014-10-17, 02:58:04,VALID,1008.76,VALID,0,INVALID,137.424,VALID,0.112112,VALID,22.7571,VALID,348,VALID,0.0609375,
2014-10-17, 02:59:04,VALID,1008.75,VALID,0,INVALID,137.431,VALID,0,VALID,22.7783,VALID,348,VALID,0,
2014-10-17, 03:00:04,VALID,1008.74,VALID,0,INVALID,137.553,VALID,0.112112,VALID,22.7978,VALID,348,VALID,0.0761719,
2014-10-17, 03:01:04,VALID,1008.73,VALID,0,INVALID,137.576,VALID,0.112112,VALID,22.7766,VALID,348,VALID,0.0519531,
2014-10-17, 03:02:04,VALID,1008.69,VALID,0,INVALID,137.637,VALID,0,VALID,22.7978,VALID,348,VALID,0.337109,
2014-10-17, 03:03:04,VALID,1008.66,VALID,0,INVALID,137.569,VALID,0.112112,VALID,22.7978,VALID,348,VALID,0.352344,
2014-10-17, 03:04:04,VALID,1008.67,VALID,0,INVALID,137.515,VALID,0.112112,VALID,22.7978,VALID,348,VALID,0.0644531,
2014-10-17, 03:05:04,VALID,1008.64,VALID,0,INVALID,137.5,VALID,0,VALID,22.7978,VALID,348,VALID,0.603125,
2014-10-17, 03:06:04,VALID,1008.62,VALID,0,INVALID,137.317,VALID,0.112112,VALID,22.7783,VALID,348,VALID,0.298047,
2014-10-17, 03:07:04,VALID,1008.61,VALID,0,INVALID,137.164,VALID,0,VALID,22.7783,VALID,348,VALID,0.156641,
2014-10-17, 03:08:04,VALID,1008.63,VALID,0,INVALID,137.134,VALID,0.112112,VALID,22.7571,VALID,348,VALID,0,
2014-10-17, 03:09:04,VALID,1008.63,VALID,0,INVALID,137.103,VALID,0,VALID,22.7588,VALID,348,VALID,0.00195313,
2014-10-17, 03:10:04,VALID,1008.59,VALID,0,INVALID,137.142,VALID,0,VALID,22.7394,VALID,348,VALID,0,
2014-10-17, 03:11:04,VALID,1008.65,VALID,0,INVALID,137.233,VALID,0,VALID,22.7199,VALID,348,VALID,0,
2014-10-17, 03:12:04,VALID,1008.66,VALID,0,INVALID,137.248,VALID,0,VALID,22.7199,VALID,348,VALID,0,
2014-10-17, 03:13:04,VALID,1008.65,VALID,0,INVALID,137.439,VALID,0,VALID,22.7199,VALID,348,VALID,0.0632813,
2014-10-17, 03:14:04,VALID,1008.68,VALID,0,INVALID,137.576,VALID,0.112112,VALID,22.6792,VALID,348,VALID,0.153125,
2014-10-17, 03:15:04,VALID,1008.66,VALID,0,INVALID,137.691,VALID,0,VALID,22.6809,VALID,348,VALID,0,
2014-10-17, 03:16:04,VALID,1008.66,VALID,0,INVALID,137.797,VALID,0,VALID,22.6792,VALID,348,VALID,0,
2014-10-17, 03:17:04,VALID,1008.66,VALID,0,INVALID,137.782,VALID,0.112112,VALID,22.7199,VALID,348,VALID,0,
2014-10-17, 03:18:04,VALID,1008.66,VALID,0,INVALID,137.759,VALID,0,VALID,22.6792,VALID,348,VALID,0,
2014-10-17, 03:19:04,VALID,1008.68,VALID,0,INVALID,137.691,VALID,0,VALID,22.7199,VALID,348,VALID,0,
2014-10-17, 03:20:04,VALID,1008.66,VALID,0,INVALID,137.622,VALID,0,VALID,22.7199,VALID,348,VALID,0,
2014-10-17, 03:21:04,VALID,1008.69,VALID,0,INVALID,137.561,VALID,0.112112,VALID,22.6597,VALID,348,VALID,0,
2014-10-17, 03:22:04,VALID,1008.75,VALID,0,INVALID,137.576,VALID,0,VALID,22.6597,VALID,348,VALID,0.383594,
2014-10-17, 03:23:04,VALID,1008.72,VALID,0,INVALID,137.63,VALID,0.112112,VALID,22.6809,VALID,348,VALID,0.444531,
2014-10-17, 03:24:04,VALID,1008.75,VALID,0,INVALID,137.599,VALID,0.112112,VALID,22.6402,VALID,348,VALID,0.483594,
2014-10-17, 03:25:04,VALID,1008.77,VALID,0,INVALID,137.591,VALID,0.112112,VALID,22.6597,VALID,348,VALID,0.305859,
2014-10-17, 03:26:04,VALID,1008.79,VALID,0,INVALID,137.53,VALID,0.112112,VALID,22.6597,VALID,348,VALID,0,
2014-10-17, 03:27:04,VALID,1008.8,VALID,0,INVALID,137.523,VALID,0.112112,VALID,22.6402,VALID,348,VALID,0,
2014-10-17, 03:28:04,VALID,1008.78,VALID,0,INVALID,137.53,VALID,0,VALID,22.6614,VALID,348,VALID,0,
2014-10-17, 03:29:04,VALID,1008.78,VALID,0,INVALID,137.569,VALID,0.112112,VALID,22.6597,VALID,348,VALID,0.358203,
2014-10-17, 03:30:04,VALID,1008.81,VALID,0,INVALID,137.53,VALID,0,VALID,22.6597,VALID,348,VALID,0.283594,
2014-10-17, 03:31:04,VALID,1008.81,VALID,0,INVALID,137.523,VALID,0,VALID,22.6809,VALID,348,VALID,0.279297,
2014-10-17, 03:32:04,VALID,1008.79,VALID,0,INVALID,137.515,VALID,0.112112,VALID,22.7004,VALID,348,VALID,0.506641,
2014-10-17, 03:33:04,VALID,1008.8,VALID,0,INVALID,137.53,VALID,0,VALID,22.7004,VALID,348,VALID,0.545313,
2014-10-17, 03:34:04,VALID,1008.78,VALID,0,INVALID,137.492,VALID,0,VALID,22.7004,VALID,348,VALID,0.545313,
2014-10-17, 03:35:04,VALID,1008.74,VALID,0,INVALID,137.469,VALID,0,VALID,22.7004,VALID,348,VALID,0.298438,
2014-10-17, 03:36:04,VALID,1008.74,VALID,0,INVALID,137.447,VALID,0,VALID,22.6792,VALID,348,VALID,0.434766,
2014-10-17, 03:37:04,VALID,1008.75,VALID,0,INVALID,137.462,VALID,0,VALID,22.6809,VALID,348,VALID,0.272656,
2014-10-17, 03:38:04,VALID,1008.77,VALID,0,INVALID,137.309,VALID,0,VALID,22.6614,VALID,348,VALID,0.2375,
2014-10-17, 03:39:04,VALID,1008.75,VALID,0,INVALID,137.309,VALID,0,VALID,22.6402,VALID,348,VALID,0.246094,
2014-10-17, 03:40:04,VALID,1008.75,VALID,0,INVALID,137.332,VALID,0,VALID,22.642,VALID,348,VALID,0.253906,